Fort Polk, LA

6:18 AM CST on December 11, 2019 (GMT -0600)
Fort Polk

Weather History for KAQV - August, 2019

Change the Weather History Date:

Sunday, August 18, 2019

  Actual Average (WUND) Record (WUND)
Temperature  
Mean Temperature 86 °F -  
Max Temperature 97 °F - - (-1)
Min Temperature 75 °F - - (-1)
Cooling Degree Days 20    
Growing Degree Days 36 (Base 50)    
Moisture  
Dew Point 74 °F    
Average Humidity 80    
Maximum Humidity 97    
Minimum Humidity 46    
Precipitation  
Precipitation 0.00 in - - ()
Sea Level Pressure  
Sea Level Pressure 29.93 in    
Wind  
Wind Speed 2 mph (South)    
Max Wind Speed 10 mph    
Max Gust Speed 16 mph    
Visibility 8 miles    
Events      
Averages and records for this station are not official NWS values.
T = Trace of Precipitation, MM = Missing Value Source: NWS Daily Summary

Daily Weather History Graph

Daily Weather History Graph

Search for Another Location

Airport or City:

Astronomy

Aug. 18, 2019 Rise Set
Actual Time 6:40 AM CDT 7:53 PM CDT
Civil Twilight 6:14 AM CDT 8:18 PM CDT
Nautical Twilight 5:44 AM CDT 8:48 PM CDT
Astronomical Twilight 5:13 AM CDT 9:19 PM CDT
Moon 9:58 PM CDT (8/18) 9:17 AM CDT (8/18)
Length of Visible Light 14h 03m
Length of Day
13h 12m
Waning Gibbous, 91% of the Moon is Illuminated
Aug 18
Waning Gibbous
Aug 23
Last Quarter
Aug 30
New
Sep 5
First Quarter
Sep 13
Full

Hourly Weather History & Observations

Time (CDT) Temp. Heat Index Dew Point Humidity Pressure Visibility Wind Dir Wind Speed Gust Speed Precip Events Conditions
12:56 AM 77.0 °F - 73.9 °F 90% 29.91 in 10.0 mi Calm Calm - N/A   Clear
1:56 AM 75.9 °F - 73.9 °F 94% 29.90 in 8.0 mi South 4.6 mph - N/A   Clear
2:56 AM 75.9 °F - 73.9 °F 94% 29.90 in 8.0 mi Calm Calm - N/A   Clear
3:56 AM 75.9 °F - 73.9 °F 94% 29.90 in 7.0 mi South 3.5 mph - N/A   Clear
4:51 AM 75.2 °F - 73.4 °F 94% 29.91 in 7.0 mi Calm Calm - N/A   Mostly Cloudy
4:56 AM 75.9 °F - 73.9 °F 94% 29.90 in 6.0 mi Calm Calm - N/A   Mostly Cloudy
5:31 AM 75.9 °F - 73.9 °F 94% 29.92 in 1.8 mi Calm Calm - N/A   Overcast
5:56 AM 75.9 °F - 73.9 °F 94% 29.91 in 1.0 mi Calm Calm - N/A   Overcast
6:17 AM 75.9 °F - 73.9 °F 94% 29.92 in 0.8 mi Calm Calm - N/A   Mist
6:49 AM 75.0 °F - 73.9 °F 96% 29.93 in 1.2 mi Calm Calm - N/A   Overcast
6:56 AM 75.0 °F - 73.9 °F 96% 29.93 in 1.2 mi Calm Calm - N/A   Overcast
7:21 AM 75.9 °F - 73.9 °F 94% 29.94 in 0.8 mi Calm Calm - N/A   Overcast
7:36 AM 75.9 °F - 75.0 °F 97% 29.94 in 1.5 mi Calm Calm - N/A   Overcast
7:42 AM 75.9 °F - 75.0 °F 97% 29.95 in 3.0 mi Calm Calm - N/A   Overcast
7:56 AM 77.0 °F - 75.0 °F 94% 29.94 in 6.0 mi SSE 3.5 mph - N/A   Overcast
8:40 AM 81.0 °F 87.3 °F 75.9 °F 85% 29.95 in 10.0 mi Variable 3.5 mph - N/A   Scattered Clouds
8:56 AM 82.0 °F 89.4 °F 75.9 °F 82% 29.94 in 10.0 mi Variable 4.6 mph - N/A   Clear
9:56 AM 84.9 °F 94.1 °F 75.9 °F 74% 29.96 in 10.0 mi Variable 4.6 mph - N/A   Scattered Clouds
10:20 AM 88.0 °F 98.5 °F 75.9 °F 67% 29.97 in 10.0 mi Variable 4.6 mph - N/A   Mostly Cloudy
10:48 AM 90.0 °F 100.2 °F 75.0 °F 61% 29.96 in 10.0 mi Variable 6.9 mph - N/A   Scattered Clouds
10:56 AM 90.0 °F 100.2 °F 75.0 °F 61% 29.95 in 10.0 mi SSW 8.1 mph - N/A   Mostly Cloudy
11:56 AM 90.0 °F 97.9 °F 73.0 °F 57% 29.94 in 10.0 mi Calm Calm - N/A   Partly Cloudy
12:56 PM 96.1 °F 104.9 °F 72.0 °F 46% 29.93 in 10.0 mi Variable 4.6 mph - N/A   Partly Cloudy
1:56 PM 89.1 °F 97.0 °F 73.0 °F 59% 29.93 in 10.0 mi Variable 3.5 mph - N/A   Overcast
2:56 PM 95.0 °F 102.5 °F 71.1 °F 46% 29.90 in 10.0 mi Variable 3.5 mph - N/A   Clear
3:56 PM 84.9 °F 91.4 °F 73.0 °F 67% 29.91 in 10.0 mi South 9.2 mph 16.1 mph N/A   Mostly Cloudy
4:56 PM 91.9 °F 99.5 °F 72.0 °F 52% 29.91 in 10.0 mi Variable 5.8 mph - N/A   Clear
5:56 PM 89.1 °F 97.0 °F 73.0 °F 59% 29.91 in 10.0 mi South 10.4 mph 16.1 mph N/A   Clear
6:56 PM 88.0 °F 97.5 °F 75.0 °F 65% 29.90 in 10.0 mi Variable 3.5 mph - N/A   Clear
7:56 PM 84.0 °F 91.2 °F 73.9 °F 72% 29.91 in 10.0 mi Variable 4.6 mph - N/A   Clear
8:56 PM 81.0 °F 86.2 °F 73.9 °F 79% 29.92 in 10.0 mi Calm Calm - N/A   Clear
9:56 PM 79.0 °F - 73.9 °F 84% 29.93 in 10.0 mi Calm Calm - N/A   Clear
10:56 PM 78.1 °F - 73.9 °F 87% 29.95 in 10.0 mi Calm Calm - N/A   Clear
11:56 PM 75.9 °F - 73.0 °F 91% 29.95 in 10.0 mi Calm Calm - N/A   Clear